Location: Newark
(44.6768°N, 22.5302°E)
Time: 02:13:15
(UTC+00:00)

SO-50 - Visible Passes

Search period start: 02 July 2022 00:00
Search period end: 12 July 2022 00:00
Orbit: 586 x 697 km, 64.6° (Epoch: 01 July)

Date Brightness Start Highest point End Pass type
(mag) Time Alt. Az. Time Alt. Az. Time Alt. Az.
02 Jul ? 00:47:48 10° WNW 00:50:40 15° NNW 00:53:33 10° N visible
02 Jul ? 21:53:41 39° ESE 21:53:41 39° ESE 21:57:58 10° NE visible
02 Jul ? 23:31:14 19° W 23:33:59 33° NW 23:38:24 10° NNE visible
03 Jul ? 01:15:24 10° NNW 01:15:57 10° NNW 01:16:28 10° NNW visible
03 Jul ? 20:39:25 11° E 20:39:25 11° E 20:39:45 10° E visible
03 Jul ? 22:16:58 60° SSW 22:17:50 87° SE 22:22:42 10° NE visible
03 Jul ? 23:55:29 10° W 23:58:56 19° NW 00:02:27 10° NNE visible
04 Jul ? 21:02:38 26° ESE 21:02:38 26° ESE 21:06:14 10° ENE visible
04 Jul ? 22:40:10 26° WSW 22:42:25 45° NW 22:47:06 10° NNE visible
05 Jul ? 00:22:07 10° NW 00:24:07 12° NNW 00:26:08 10° N visible
05 Jul ? 21:25:43 53° SSE 21:26:27 60° ESE 21:31:14 10° NE visible
05 Jul ? 23:03:22 10° W 23:07:16 25° NW 23:11:17 10° NNE visible
06 Jul ? 20:11:08 18° ESE 20:11:08 18° ESE 20:14:14 10° ENE visible
06 Jul ? 21:48:40 30° WSW 21:50:56 64° NW 21:55:46 10° NNE visible
06 Jul ? 23:29:32 10° WNW 23:32:21 15° NNW 23:35:11 10° N visible
07 Jul ? 20:33:54 33° SSE 20:35:08 40° ESE 20:39:39 10° NE visible
07 Jul ? 22:11:24 10° WSW 22:15:39 32° NW 22:20:03 10° NNE visible
07 Jul ? 23:57:30 10° NNW 23:57:38 10° NNW 23:57:45 10° NNW visible
08 Jul ? 19:18:53 11° ESE 19:19:51 12° ESE 19:21:36 10° E visible
08 Jul ? 20:56:22 21° SW 20:59:29 90° SSE 21:04:22 10° NE visible
08 Jul ? 22:37:12 10° W 22:40:37 19° NW 22:44:05 10° N visible
09 Jul ? 19:40:54 15° SSE 19:43:51 27° ESE 19:47:56 10° NE visible
09 Jul ? 21:19:34 10° WSW 21:24:05 44° NW 21:28:45 10° NNE visible
09 Jul ? 23:03:52 10° NW 23:05:48 12° NNW 23:07:44 10° N visible
10 Jul ? 20:03:28 10° SSW 20:08:06 62° ESE 20:12:53 10° NE visible
10 Jul ? 21:45:03 10° W 21:48:56 24° NW 21:52:55 10° NNE visible
11 Jul ? 18:49:24 10° SSE 18:52:38 19° ESE 18:55:57 10° ENE visible
11 Jul ? 20:27:54 10° SW 20:32:35 62° NW 20:37:25 10° NNE visible
11 Jul ? 22:11:15 10° WNW 22:14:00 15° NNW 22:16:48 10° N visible
